Location: Newark
(13.6797°N, 8.5297°E)
Time: 04:07:16
(UTC+00:00)

Courier 1B Rocket - Pass Details

Date: 22 January 2020
Orbit: 920 x 1202 km, 28.2° (Epoch: 17 February)

Event Time Altitude Azimuth Distance (km) Brightness Sun altitude
Rises 15:47:10 0° 304° (NW) 3,632 8.4 20.1°
Reaches altitude 10° 15:50:16 10° 316° (NW) 2,652 7.6 19.4°
Maximum altitude 15:55:35 27° 13° (NNE) 1,674 6.1 18.3°
Drops below altitude 10° 16:00:48 10° 70° (ENE) 2,601 6.7 17.1°
Sets 16:03:48 0° 82° (E) 3,549 7.4 16.5°
